KI4RPM Weather Reports


time (UTC)temp
C
wind
direction
speed
KPH
gust
KPH
rain 1hr
cm
rain 24hr
cm
rain mn
cm
humidity
%
barometer
mb
20260508165327 20 65 1.6 8.0 0.00 0.00 0.00 45 449.5
20260508164827 20 71 0.0 3.2 0.00 0.00 0.00 45 755.7
20260508164605 20 72 0.0 6.4 0.00 0.00 0.00 43 1067.9
20260508164324 20 72 0.0 6.4 0.00 0.00 0.00 36
20260508163825 20 69 3.2 6.4 0.00 0.00 0.00 41 1021.6
20260508163331 20 55 0.0 6.4 0.00 0.00 0.00 41
20260508163050 19 56 0.0 6.4 0.00 0.00 0.00 44 1067.9
20260508162839 20 56 1.6 8.0 0.00 0.00 0.00 39
20260508162340 20 61 3.2 8.0 0.00 0.00 0.00 38
20260508161827 20 20 3.2 8.0 0.00 0.00 0.00 44 334.5
20260508161538 20 22 0.0 6.4 0.00 0.00 0.00 43 1067.9
20260508161330 20 22 0.0 6.4 0.00 0.00 0.00 42 343.6
20260508160850 20 292 0.0 3.2 0.00 0.00 0.00 38 832.5
20260508160332 19 261 0.0 0.0 0.00 0.00 0.00 49
20260508160040 18 252 0.0 0.0 0.00 0.00 0.00 49 1067.9
20260508155837 19 251 0.0 1.6 0.00 0.00 0.00 46 973.0
20260508155330 18 253 0.0 9.7 0.00 0.00 0.00 46
20260508154815 18 254 3.2 9.7 0.00 0.00 0.00 50
20260508154529 18 255 0.0 6.4 0.00 0.00 0.00 49 1067.9
20260508154316 18 255 0.0 14.5 0.00 0.00 0.00 46 561.4
20260508153815 18 255 3.2 14.5 0.00 0.00 0.00 48
20260508153342 18 153 0.0 3.2 0.00 0.00 0.00 58 747.7
20260508153011 18 153 0.0 3.2 0.00 0.00 0.00 54 1067.9
20260508152830 18 153 0.0 3.2 0.00 0.00 0.00 53 913.1
20260508152316 18 153 0.0 0.0 0.00 0.00 0.00 52
20260508151839 18 180 0.0 9.7 0.00 0.00 0.00 52
20260508151604 17 181 0.0 9.7 0.00 0.00 0.00 55 1067.9
20260508151318 18 181 4.8 9.7 0.00 0.00 0.00 53 937.8
20260508150842 17 180 0.0 8.0 0.00 0.00 0.00 56
20260508150328 17 180 1.6 8.0 0.00 0.00 0.00 56
20260508150028 17 186 0.0 8.0 0.00 0.00 0.00 58 1067.9
20260508145833 17 187 1.6 8.0 0.00 0.00 0.00 56
20260508145340 17 206 0.0 1.6 0.00 0.00 0.00 60 610.8
20260508144816 17 207 0.0 1.6 0.00 0.00 0.00 60
20260508144519 17 220 0.0 1.6 0.00 0.00 0.00 66 1067.9
20260508144322 17 225 0.0 0.0 0.00 0.00 0.00 64
20260508143813 17 234 0.0 0.0 0.00 0.00 0.00 59 627.9
20260508143343 17 234 0.0 0.0 0.00 0.00 0.00 58 803.1
20260508143001 17 236 0.0 0.0 0.00 0.00 0.00 64 1067.9
20260508142814 17 236 0.0 0.0 0.00 0.00 0.00 65
20260508142319 17 238 0.0 0.0 0.00 0.00 0.00 62 315.2
20260508141845 17 238 0.0 0.0 0.00 0.00 0.00 65 172.9
20260508141535 16 238 0.0 0.0 0.00 0.00 0.00 64 1067.9
20260508141345 16 238 0.0 0.0 0.00 0.00 0.00 66
20260508140831 16 238 0.0 0.0 0.00 0.00 0.00 64 616.0
20260508140337 16 237 0.0 0.0 0.00 0.00 0.00 69
20260508140037 15 237 0.0 0.0 0.00 0.00 0.00 69 1067.9
20260508135821 16 237 0.0 0.0 0.00 0.00 0.00 69
20260508135343 16 238 0.0 0.0 0.00 0.00 0.00 69 752.3
20260508134820 16 238 0.0 0.0 0.00 0.00 0.00 71
20260508134528 15 238 0.0 0.0 0.00 0.00 0.00 66 1067.9
20260508134325 15 238 0.0 0.0 0.00 0.00 0.00 67 802.6
20260508133854 15 238 0.0 0.0 0.00 0.00 0.00 66
20260508133341 15 238 0.0 0.0 0.00 0.00 0.00 72 516.0
20260508133113 15 237 0.0 0.0 0.00 0.00 0.00 73 1067.9
20260508132830 15 237 0.0 0.0 0.00 0.00 0.00 74 413.2
20260508132333 15 237 0.0 0.0 0.00 0.00 0.00 73
20260508131840 15 231 0.0 0.0 0.00 0.00 0.00 81
20260508131529 14 231 0.0 0.0 0.00 0.00 0.00 80 1067.9
20260508131341 14 231 0.0 0.0 0.00 0.00 0.00 80 820.5
20260508130822 13 231 0.0 0.0 0.00 0.00 0.00 80
20260508130331 13 231 0.0 0.0 0.00 0.00 0.00 84 634.4
20260508125834 13 231 0.0 0.0 0.00 0.00 0.00 88
20260508125331 12 231 0.0 0.0 0.00 0.00 0.00 89
20260508124853 12 230 0.0 0.0 0.00 0.00 0.00 90 859.1
20260508124531 11 231 0.0 0.0 0.00 0.00 0.00 91 1067.9
20260508124333 12 230 0.0 0.0 0.00 0.00 0.00 92 360.1
20260508123832 11 231 0.0 0.0 0.00 0.00 0.00 93 121.7
20260508123336 11 231 0.0 0.0 0.00 0.00 0.00 94
20260508123007 10 231 0.0 0.0 0.00 0.00 0.00 94 1067.9
20260508122816 10 231 0.0 0.0 0.00 0.00 0.00 95
20260508122321 10 231 0.0 0.0 0.00 0.30 0.00 95
20260508121814 10 231 0.0 0.0 0.00 0.30 0.00 95 524.0
20260508121603 9 231 0.0 0.0 0.00 0.30 0.00 95 1067.9
20260508121318 10 231 0.0 0.0 0.00 0.30 0.00 95
20260508120846 9 231 0.0 0.0 0.00 0.30 0.00 95 120.2
20260508120329 8 231 0.0 0.0 0.00 0.30 0.00 95
20260508120023 8 230 0.0 0.0 0.00 0.30 0.00 95 1067.9
20260508115822 8 231 0.0 0.0 0.00 0.30 0.00 95
20260508115319 8 230 0.0 0.0 0.00 0.30 0.00 95 -109.5
20260508114833 8 230 0.0 0.0 0.00 0.30 0.00 95
20260508114531 7 231 0.0 0.0 0.00 0.30 0.00 95 1067.9
20260508114321 7 231 0.0 0.0 0.00 0.30 0.00 95
20260508113812 7 231 0.0 0.0 0.00 0.30 0.00 95 934.6
20260508113324 7 223 0.0 0.0 0.00 0.30 0.00 96 431.5
20260508113035 7 232 0.0 0.0 0.00 0.30 0.00 95 1067.9
20260508112817 7 232 0.0 0.0 0.00 0.30 0.00 95 10.7
20260508112341 7 232 0.0 0.0 0.00 0.36 0.00 95
20260508111840 7 232 0.0 0.0 0.00 0.36 0.00 95
20260508111511 6 232 0.0 0.0 0.00 0.36 0.00 95 1067.9
20260508111332 6 232 0.0 0.0 0.00 0.36 0.00 95
20260508110813 6 232 0.0 0.0 0.00 0.36 0.00 95 77.4
20260508110316 6 232 0.0 0.0 0.00 0.36 0.00 95
20260508110105 6 232 0.0 0.0 0.00 0.36 0.00 95 1067.9
20260508105826 6 232 0.0 0.0 0.00 0.36 0.00 95
20260508105315 5 232 0.0 0.0 0.00 0.36 0.00 94
20260508104843 5 221 0.0 0.0 0.00 0.36 0.00 94
20260508104548 5 221 0.0 0.0 0.00 0.36 0.00 94 1067.9
20260508104332 5 221 0.0 0.0 0.00 0.36 0.00 94
20260508103822 6 221 0.0 0.0 0.00 0.36 0.00 94
20260508103313 5 221 0.0 0.0 0.00 0.36 0.00 94 51.2
20260508103039 5 221 0.0 0.0 0.00 0.36 0.00 94 1067.9
20260508102815 6 221 0.0 0.0 0.00 0.36 0.00 94
20260508102340 6 221 0.0 0.0 0.00 0.36 0.00 94
20260508101823 6 221 0.0 0.0 0.00 0.36 0.00 94
20260508101519 5 221 0.0 0.0 0.00 0.36 0.00 94 1067.9
20260508101347 6 221 0.0 0.0 0.00 0.36 0.00 94
20260508100826 6 221 0.0 0.0 0.00 0.36 0.00 94 126.2
20260508100332 6 221 0.0 0.0 0.00 0.36 0.00 94
20260508100038 6 221 0.0 0.0 0.00 0.36 0.00 94 1067.9
20260508095844 6 221 0.0 0.0 0.00 0.36 0.00 94
20260508095349 6 221 0.0 0.0 0.00 0.36 0.00 94 0.4
20260508094836 6 221 0.0 0.0 0.00 0.36 0.00 94
20260508094612 6 221 0.0 0.0 0.00 0.36 0.00 94 1067.9
20260508094358 6 221 0.0 0.0 0.00 0.36 0.00 94 580.9
20260508093815 6 221 0.0 0.0 0.00 0.36 0.00 94
20260508093323 6 221 0.0 0.0 0.00 0.36 0.00 94 1016.2
20260508093040 6 221 0.0 0.0 0.00 0.36 0.00 94 1067.9
20260508092832 6 221 0.0 0.0 0.00 0.36 0.00 94 103.6
20260508092323 6 221 0.0 0.0 0.00 0.36 0.00 94 392.6
20260508091830 6 221 0.0 0.0 0.00 0.36 0.00 94
20260508091540 6 221 0.0 0.0 0.00 0.36 0.00 94 1067.9
20260508091315 6 221 0.0 0.0 0.00 0.36 0.00 94
20260508090814 6 221 0.0 0.0 0.00 0.36 0.00 94 545.6
20260508090350 6 221 0.0 0.0 0.00 0.36 0.00 94 731.1
20260508090109 6 221 0.0 0.0 0.00 0.36 0.00 94 1067.9
20260508085828 6 221 0.0 0.0 0.00 0.36 0.00 94 303.2
20260508085322 6 221 0.0 0.0 0.00 0.36 0.00 94
20260508084824 6 221 0.0 0.0 0.00 0.36 0.00 94
20260508084558 6 221 0.0 0.0 0.00 0.36 0.00 94 1067.9
20260508084324 6 221 0.0 0.0 0.00 0.36 0.00 94
20260508083828 6 221 0.0 0.0 0.00 0.36 0.00 93 116.3
20260508083333 6 221 0.0 0.0 0.00 0.36 0.00 93
20260508083054 6 221 0.0 0.0 0.00 0.36 0.00 94 1067.9
20260508082841 7 221 0.0 0.0 0.00 0.36 0.00 94 293.8
20260508082322 7 221 0.0 0.0 0.00 0.36 0.00 94 448.7
20260508081829 7 221 0.0 0.0 0.00 0.36 0.00 93 930.0
20260508081552 7 221 0.0 0.0 0.00 0.36 0.00 94 1067.9
20260508081316 7 221 0.0 0.0 0.00 0.36 0.00 94 108.8
20260508080845 7 221 0.0 0.0 0.00 0.36 0.00 94
20260508080345 7 221 0.0 0.0 0.00 0.36 0.00 94
20260508080004 7 221 0.0 0.0 0.00 0.36 0.00 94 1067.9
20260508075834 7 221 0.0 0.0 0.00 0.36 0.00 94
20260508075335 7 221 0.0 0.0 0.00 0.36 0.00 94 242.0
20260508074819 7 221 0.0 0.0 0.00 0.36 0.00 93 793.6
20260508074536 7 221 0.0 0.0 0.00 0.36 0.00 94 1067.9
20260508074325 7 221 0.0 0.0 0.00 0.36 0.00 93 971.7
20260508073818 7 221 0.0 0.0 0.00 0.36 0.00 93
20260508073326 7 221 0.0 0.0 0.00 0.36 0.00 93
20260508073033 7 221 0.0 0.0 0.00 0.36 0.00 93 1067.9
20260508072816 7 221 0.0 0.0 0.00 0.36 0.00 93
20260508072340 7 221 0.0 0.0 0.00 0.38 0.00 93
20260508071820 7 221 0.0 0.0 0.00 0.38 0.00 93 709.7
20260508071506 7 221 0.0 0.0 0.00 0.38 0.00 93 1067.9
20260508071329 7 221 0.0 0.0 0.00 0.38 0.00 93 6.3
20260508070850 7 221 0.0 0.0 0.00 0.38 0.00 93 227.5
20260508070319 7 221 0.0 0.0 0.00 0.38 0.00 93
20260508070041 7 221 0.0 0.0 0.00 0.38 0.00 93 1067.9
20260508065828 7 221 0.0 0.0 0.00 0.38 0.00 93
20260508065342 7 221 0.0 0.0 0.00 0.38 0.00 93
20260508064815 7 221 0.0 0.0 0.00 0.38 0.00 93 126.8
20260508064520 7 221 0.0 0.0 0.00 0.38 0.00 93 1067.9
20260508064340 8 221 0.0 0.0 0.00 0.38 0.00 93 -107.3
20260508063823 8 221 0.0 0.0 0.00 0.38 0.00 93 214.0
20260508063328 8 221 0.0 0.0 0.00 0.38 0.00 93 312.1
20260508063128 8 221 0.0 0.0 0.00 0.38 0.00 93 1067.9
20260508062823 8 221 0.0 0.0 0.00 0.38 0.00 93
20260508062357 8 221 0.0 0.0 0.00 0.41 0.00 92 -107.0
20260508061815 8 221 0.0 0.0 0.00 0.41 0.00 92
20260508061530 8 221 0.0 0.0 0.00 0.41 0.00 93 1067.9
20260508061326 8 221 0.0 0.0 0.00 0.41 0.00 92 923.8
20260508060832 8 221 0.0 0.0 0.00 0.41 0.00 92
20260508060315 8 221 0.0 0.0 0.00 0.41 0.00 92
20260508060002 8 221 0.0 0.0 0.00 0.41 0.00 91 1067.9
20260508055828 8 221 0.0 0.0 0.00 0.41 0.00 91
20260508055333 8 221 0.0 0.0 0.00 0.41 0.00 91
20260508054836 8 221 0.0 0.0 0.00 0.41 0.00 91
20260508054556 8 221 0.0 0.0 0.00 0.41 0.00 91 1067.9
20260508054323 8 221 0.0 0.0 0.00 0.41 0.00 91 34.6
20260508053816 8 221 0.0 0.0 0.00 0.41 0.00 91 871.3
20260508053329 8 221 0.0 0.0 0.00 0.41 0.00 91 205.2
20260508053101 8 221 0.0 0.0 0.00 0.41 0.00 91 1067.9
20260508052819 9 221 0.0 0.0 0.00 0.41 0.00 91 511.4
20260508052316 9 221 0.0 0.0 0.00 0.58 0.00 91
20260508051817 9 221 0.0 0.0 0.00 0.58 0.00 90
20260508051552 9 221 0.0 0.0 0.00 0.58 0.00 90 1067.9
20260508051320 9 221 0.0 0.0 0.00 0.58 0.00 90
20260508050821 9 221 0.0 0.0 0.00 0.58 0.00 90
20260508050328 9 221 0.0 0.0 0.00 0.58 0.00 90 648.3
20260508050025 9 221 0.0 0.0 0.00 0.58 0.00 90 1067.9
20260508045831 10 221 0.0 0.0 0.00 0.58 0.00 90
20260508045335 10 221 0.0 0.0 0.00 0.58 0.00 89 482.1
20260508044839 10 221 0.0 0.0 0.00 0.58 0.00 89 814.3
20260508044510 10 221 0.0 0.0 0.00 0.58 0.00 89 1067.9
20260508044316 10 221 0.0 0.0 0.00 0.58 0.00 89
20260508043817 10 221 0.0 0.0 0.00 0.58 0.00 89
20260508043338 10 221 0.0 0.0 0.00 0.58 0.00 89
20260508043055 10 221 0.0 0.0 0.00 0.58 0.00 88 1067.9
20260508042843 10 221 0.0 0.0 0.00 0.58 0.00 89 1082.5
20260508042319 10 221 0.0 0.0 0.00 0.61 0.58 88
20260508041824 10 221 0.0 0.0 0.00 0.61 0.58 88
20260508041546 10 221 0.0 0.0 0.00 0.61 0.58 88 1067.9
20260508041315 11 221 0.0 0.0 0.00 0.61 0.58 87
20260508040830 11 221 0.0 0.0 0.00 0.61 0.58 87 373.1
20260508040316 11 221 0.0 0.0 0.00 0.61 0.58 86 334.1
20260508040032 11 221 0.0 0.0 0.00 0.61 0.58 85 1067.9
20260508035816 11 221 0.0 0.0 0.00 0.61 0.58 85 303.5
20260508035338 11 221 0.0 0.0 0.00 0.61 0.58 84 370.5
20260508034818 11 221 0.0 0.0 0.00 0.61 0.58 84 568.9
20260508034525 11 221 0.0 0.0 0.00 0.61 0.58 83 1067.9
20260508034319 11 221 0.0 0.0 0.00 0.61 0.58 82 1032.9
20260508033820 12 221 0.0 0.0 0.00 0.61 0.58 81
20260508033346 12 221 0.0 0.0 0.00 0.61 0.58 81
20260508033050 11 221 0.0 0.0 0.00 0.61 0.58 81 1067.9
20260508032848 12 221 0.0 0.0 0.00 0.61 0.58 81
20260508032337 12 221 0.0 0.0 0.00 0.64 0.58 81 123.2
20260508031821 12 221 0.0 0.0 0.00 0.64 0.58 80
20260508031516 11 221 0.0 0.0 0.00 0.64 0.58 81 1067.9
20260508031325 12 221 0.0 0.0 0.00 0.64 0.58 81 719.4
20260508030833 12 221 0.0 0.0 0.00 0.64 0.58 81 19.4
20260508030343 12 221 0.0 0.0 0.00 0.64 0.58 80 660.0
20260508030047 12 221 0.0 0.0 0.00 0.64 0.58 80 1067.9
20260508025827 12 221 0.0 0.0 0.00 0.64 0.58 80
20260508025339 12 221 0.0 0.0 0.00 0.64 0.58 80 929.7
20260508024826 12 221 0.0 6.4 0.00 0.64 0.58 79
20260508024523 12 221 0.0 8.0 0.00 0.64 0.58 78 1067.9
20260508024320 13 221 1.6 12.9 0.00 0.64 0.58 78
20260508023835 13 221 6.4 12.9 0.00 0.64 0.58 77
20260508023321 13 222 8.0 14.5 0.00 0.64 0.58 77
20260508023046 13 226 8.0 14.5 0.00 0.64 0.58 77 1067.9
20260508022845 13 227 9.7 14.5 0.00 0.64 0.58 77
20260508022320 13 225 9.7 14.5 0.00 0.71 0.58 77
20260508021825 13 223 3.2 11.3 0.00 0.71 0.58 78 518.0
20260508021550 12 220 0.0 0.0 0.00 0.71 0.58 77 1067.9
20260508021333 12 219 0.0 0.0 0.00 0.71 0.58 78
20260508020813 13 220 0.0 0.0 0.00 0.71 0.58 78 552.8
20260508020326 13 220 0.0 0.0 0.00 0.71 0.58 78 758.1
20260508020039 12 220 0.0 0.0 0.00 0.71 0.58 77 1067.9
20260508015834 13 220 0.0 0.0 0.00 0.71 0.58 77 157.7
20260508015333 13 222 0.0 0.0 0.00 0.71 0.58 77 312.4
20260508014820 13 223 0.0 0.0 0.00 0.71 0.58 76 1082.6
20260508014533 13 223 0.0 0.0 0.00 0.71 0.58 75 1067.9
20260508014342 13 223 0.0 0.0 0.00 0.71 0.58 75
20260508013846 13 223 0.0 0.0 0.00 0.71 0.58 74 315.4
20260508013330 13 223 0.0 0.0 0.00 0.71 0.58 74
20260508013042 13 222 0.0 0.0 0.00 0.71 0.58 73 1039.8
20260508012836 14 222 0.0 0.0 0.00 0.71 0.58 73 937.1
20260508012339 14 222 0.0 0.0 0.00 0.81 0.58 72
20260508011817 14 223 0.0 0.0 0.00 0.81 0.58 73 927.1
20260508011511 13 222 0.0 0.0 0.00 0.81 0.58 73 1039.8
20260508011321 14 222 0.0 0.0 0.00 0.81 0.58 73
20260508010819 14 223 0.0 0.0 0.00 0.81 0.58 72
20260508010327 14 223 0.0 0.0 0.00 0.81 0.58 72 424.8
20260508010111 14 222 0.0 0.0 0.00 0.81 0.58 72 1039.8
20260508005823 14 222 0.0 0.0 0.00 0.81 0.58 72
20260508005324 14 222 0.0 8.0 0.00 0.81 0.58 72
20260508004825 15 222 0.0 11.3 0.00 0.81 0.58 72 538.1
20260508004541 14 223 4.8 11.3 0.00 0.81 0.58 71 1039.8
20260508004328 15 222 6.4 11.3 0.00 0.81 0.58 71 491.8
20260508003855 15 228 1.6 11.3 0.00 0.81 0.58 71 523.5
20260508003338 15 243 0.0 8.0 0.00 0.81 0.58 70
20260508003005 15 248 0.0 8.0 0.00 0.81 0.58 69 1039.8
20260508002833 15 248 0.0 11.3 0.00 0.81 0.58 69 810.5
20260508002318 16 248 3.2 11.3 0.00 0.99 0.58 68
20260508001839 16 251 0.0 9.7 0.00 0.99 0.58 67
20260508001600 16 251 0.0 9.7 0.00 0.99 0.58 67 1039.8
20260508001312 16 250 0.0 17.7 0.00 0.99 0.58 66 531.0
20260508000812 16 250 4.8 17.7 0.00 0.99 0.58 65 1090.4
20260508000320 16 233 6.4 19.3 0.00 0.99 0.58 65
20260508000026 16 246 4.8 20.9 0.00 0.99 0.58 64 1039.8
20260507235851 16 239 9.7 20.9 0.00 0.99 0.58 64
20260507235341 17 209 11.3 24.1 0.00 0.99 0.58 64
20260507234823 17 233 12.9 24.1 0.00 0.99 0.58 65 64.4
20260507234547 17 250 12.9 24.1 0.00 0.99 0.58 65 1039.8
20260507234331 17 261 11.3 24.1 0.00 0.99 0.58 64
20260507233826 17 244 14.5 24.1 0.00 0.99 0.58 65 776.9
20260507233322 17 219 9.7 25.7 0.00 0.99 0.58 66
20260507233051 17 211 14.5 25.7 0.00 0.99 0.58 65 1039.8
20260507232819 17 254 17.7 27.4 0.00 0.99 0.58 65
20260507232328 17 248 12.9 27.4 0.00 0.99 0.58 66 853.4
20260507231853 18 267 11.3 27.4 0.00 0.99 0.58 66
20260507231518 18 237 14.5 27.4 0.00 0.99 0.58 64 1039.8
20260507231337 18 223 17.7 27.4 0.00 0.99 0.58 64
20260507230845 19 239 12.9 24.1 0.00 0.99 0.58 64
20260507230328 19 249 11.3 19.3 0.00 0.99 0.58 65 302.8
20260507230046 19 241 8.0 22.5 0.00 0.99 0.58 65 1039.8
20260507225832 19 275 9.7 22.5 0.00 0.99 0.58 65
20260507225338 19 223 14.5 22.5 0.00 0.99 0.58 64
20260507224817 20 270 11.3 25.7 0.00 0.99 0.58 65
20260507224527 19 221 8.0 25.7 0.00 0.99 0.58 65 1039.8
20260507224346 20 244 12.9 25.7 0.00 0.99 0.58 65 225.6
20260507223830 20 242 12.9 29.0 0.00 0.99 0.58 64 162.3
20260507223337 20 237 14.5 29.0 0.00 0.99 0.58 63 173.7
20260507223004 20 269 14.5 24.1 0.00 0.99 0.58 64 1039.8
20260507222824 20 247 16.1 24.1 0.00 0.99 0.58 64 267.5
20260507222338 20 229 11.3 27.4 0.00 0.99 0.58 64
20260507221814 21 259 16.1 27.4 0.00 0.99 0.58 62 1037.6
20260507221514 21 257 9.7 27.4 0.00 0.99 0.58 61 1039.8
20260507221325 22 275 11.3 19.3 0.00 0.99 0.58 62 615.9
20260507220829 22 226 9.7 14.5 0.00 0.99 0.58 62
20260507220333 22 234 1.6 16.1 0.00 0.99 0.58 62
20260507220059 22 238 8.0 16.1 0.00 0.99 0.58 61 1039.8
20260507215816 22 275 1.6 20.9 0.00 0.99 0.58 62 690.9
20260507215333 23 240 12.9 20.9 0.00 0.99 0.58 61
20260507214847 23 260 8.0 25.7 0.00 0.99 0.58 61
20260507214551 22 236 6.4 25.7 0.00 0.99 0.58 62 1039.8
20260507214337 23 234 11.3 25.7 0.00 0.99 0.58 59
20260507213814 23 241 0.0 16.1 0.00 0.99 0.58 63 744.4
20260507213330 23 245 8.0 20.9 0.00 0.99 0.58 64 194.1
20260507213121 23 256 6.4 29.0 0.00 0.99 0.58 62 1039.8
20260507212840 23 273 8.0 29.0 0.00 0.99 0.58 62
20260507212336 23 271 6.4 29.0 0.00 0.99 0.58 65
20260507211822 23 236 9.7 20.9 0.00 0.99 0.58 64
20260507211523 22 219 11.3 27.4 0.00 0.99 0.58 63 1039.8
20260507211328 22 217 12.9 27.4 0.00 0.99 0.58 65 277.3
20260507210836 22 225 16.1 27.4 0.00 0.99 0.58 63
20260507210324 22 252 6.4 19.3 0.00 0.99 0.58 68 588.0
20260507205819 22 240 12.9 19.3 0.00 0.99 0.58 64 899.7
20260507205327 23 250 11.3 24.1 0.00 0.99 0.58 65
20260507204846 23 271 12.9 24.1 0.00 0.99 0.58 62 582.2
20260507204532 23 242 9.7 22.5 0.00 0.99 0.58 63 1039.8
20260507204332 23 248 11.3 22.5 0.00 0.99 0.58 62
20260507203835 24 229 11.3 24.1 0.00 0.99 0.58 63
20260507203313 24 225 14.5 24.1 0.00 0.99 0.58 64 916.5
20260507203014 23 262 8.0 20.9 0.00 0.99 0.58 66 1039.8
20260507202826 23 263 9.7 25.7 0.00 0.99 0.58 66 375.1
20260507202314 23 240 6.4 25.7 0.00 0.99 0.58 64 1050.3
20260507201820 23 227 12.9 29.0 0.00 0.99 0.58 64 64.2
20260507201513 23 244 9.7 29.0 0.00 0.99 0.58 64 1039.8
20260507201330 24 240 12.9 29.0 0.00 0.99 0.58 64 1057.9
20260507200837 24 233 8.0 20.9 0.00 0.99 0.58 67
20260507200325 25 250 6.4 19.3 0.00 0.99 0.58 65 1087.5
20260507200057 25 225 6.4 19.3 0.00 0.99 0.58 62 1039.8
20260507195834 25 200 9.7 19.3 0.00 0.99 0.58 62
20260507195330 25 232 6.4 11.3 0.00 0.99 0.58 66
20260507194833 25 223 0.0 12.9 0.00 0.99 0.58 64
20260507194537 24 213 3.2 19.3 0.00 0.99 0.58 64 1039.8
20260507194336 25 272 3.2 19.3 0.00 0.99 0.58 66
20260507193820 25 229 3.2 19.3 0.00 0.99 0.58 66 1005.0
20260507193320 25 226 6.4 14.5 0.00 0.99 0.58 65
20260507193036 25 239 1.6 24.1 0.00 0.99 0.58 65 1039.8
20260507192813 25 227 6.4 24.1 0.00 0.99 0.58 66 1081.7
20260507192314 25 248 6.4 20.9 0.00 0.99 0.58 67 840.8
20260507191822 25 229 4.8 19.3 0.00 0.99 0.58 69
20260507191521 25 223 8.0 19.3 0.00 0.99 0.58 67 1039.8
20260507191334 26 214 6.4 12.9 0.00 0.99 0.58 71
20260507190828 25 246 3.2 9.7 0.00 0.99 0.58 66
20260507190337 25 232 1.6 14.5 0.00 0.99 0.58 69
20260507190041 25 223 3.2 17.7 0.00 0.99 0.58 68 1039.8
20260507185840 25 266 4.8 17.7 0.00 0.99 0.58 69
20260507185324 26 252 6.4 16.1 0.00 0.99 0.58 68
20260507184844 26 161 9.7 19.3 0.00 0.99 0.58 68 22.3
20260507184509 25 173 11.3 19.3 0.00 0.99 0.58 70 1039.8
20260507184323 26 163 8.0 16.1 0.00 0.99 0.58 69 664.6
20260507183822 25 202 9.7 16.1 0.00 0.99 0.58 72
20260507183331 25 200 9.7 14.5 0.00 0.99 0.58 72 258.9
20260507183104 25 204 8.0 14.5 0.00 0.99 0.58 72 1039.8
20260507182827 25 194 4.8 14.5 0.00 0.99 0.58 74
20260507182315 25 196 6.4 17.7 0.00 0.99 0.58 74
20260507181844 25 164 8.0 25.7 0.00 0.99 0.58 72 274.1
20260507181544 24 179 9.7 25.7 0.00 0.99 0.58 73 1039.8
20260507181332 24 162 12.9 25.7 0.00 0.99 0.58 71 1077.7
20260507180825 25 142 8.0 19.3 0.00 0.99 0.58 75 1047.6
20260507180314 25 177 8.0 14.5 0.00 0.99 0.58 74 334.3
20260507180029 25 167 6.4 14.5 0.00 0.99 0.58 76 1039.8
20260507175843 25 134 3.2 9.7 0.00 0.99 0.58 78 1027.2
20260507175326 24 107 3.2 14.5 0.00 0.99 0.58 75
20260507174837 24 154 6.4 14.5 0.00 0.99 0.58 77 542.4
20260507174513 23 134 6.4 12.9 0.00 0.99 0.58 72 1039.8
20260507174321 24 155 1.6 16.1 0.00 0.99 0.58 74 693.7
20260507173846 24 167 4.8 16.1 0.00 0.99 0.58 75
20260507173327 24 159 6.4 14.5 0.00 0.99 0.58 74 1007.3
20260507173100 23 146 6.4 14.5 0.00 0.99 0.58 74 1039.8
20260507172843 24 154 3.2 11.3 0.00 0.99 0.58 76
20260507172322 24 136 3.2 11.3 0.00 1.04 0.58 79
20260507171830 23 129 0.0 11.3 0.00 1.04 0.58 76 828.5
20260507171531 23 129 4.8 11.3 0.00 1.04 0.58 78 1039.8
20260507171331 23 127 6.4 11.3 0.00 1.04 0.58 78 31.3
20260507170829 23 148 6.4 11.3 0.00 1.04 0.58 81 755.3
20260507170336 23 148 3.2 11.3 0.00 1.04 0.58 82
20260507170002 23 133 0.0 12.9 0.00 1.04 0.58 80 1039.8
20260507165813 23 134 3.2 12.9 0.00 1.04 0.58 81 1046.8